DW5259 Lakeland FL US current weather conditions

sailwx.info

Wind from 097 at 2 knots gusting 7

Air temperature 20.6° C
Dewpoint -37.5° C

Last reported at 2019-Dec-13 01:02 UTC.
Time now 2019-Dec-13 02:12 UTC

Location: N 28°04' W 082°02'.
View on Google Maps.

See reports from other nearby stations

  
Tides and Currents Weather Stations Pressure Air Temp Water Temp Dewpoint Dewpoint Depression Visibility Wind Speed Wind Dir Waves Ship Positions
date/time (UTC)wind fromknots sea level pressurealtimeterstation pressurevisibilityair tempwater tempwave heightnotes
2019-Dec-13 01:02 097 2 gusting 7 20.6
2019-Dec-13 00:47 155 1 gusting 7 20.6
2019-Dec-13 00:31 077 1 gusting 7 20.6
2019-Dec-13 00:16 076 2 gusting 9 20.6
2019-Dec-13 00:02 350 2 gusting 7 20.6
2019-Dec-12 23:46 044 3 gusting 9 20.6
2019-Dec-12 23:31 109 1 gusting 7 20.6
2019-Dec-12 23:17 309 1 gusting 10 20.6
2019-Dec-12 23:02 100 1 gusting 7 20.6
2019-Dec-12 22:47 054 1 gusting 6 21.1
2019-Dec-12 22:31 090 2 gusting 8 21.1
2019-Dec-12 22:15 047 0 gusting 9 21.1
2019-Dec-12 22:02 064 0 gusting 7 21.1
2019-Dec-12 21:46 045 2 gusting 7 21.1
2019-Dec-12 21:31 038 2 gusting 8 21.1
2019-Dec-12 21:16 074 2 gusting 7 21.1
2019-Dec-12 21:02 074 1 gusting 13 21.7
2019-Dec-12 20:49 077 4 gusting 10 21.7
2019-Dec-12 20:31 114 1 gusting 7 22.2
2019-Dec-12 20:16 360 0 gusting 4 22.2
2019-Dec-12 20:01 140 2 gusting 6 22.2
2019-Dec-12 19:48 093 2 gusting 13 22.8
2019-Dec-12 19:32 012 5 gusting 12 23.3
2019-Dec-12 19:16 355 1 gusting 4 23.9
2019-Dec-12 19:02 075 0 gusting 4 23.9
2019-Dec-12 18:47 048 3 gusting 10 23.9
2019-Dec-12 18:32 049 2 gusting 8 24.4
2019-Dec-12 18:17 051 0 gusting 10 24.4
2019-Dec-12 18:02 315 1 gusting 10 24.4
2019-Dec-12 17:47 091 4 gusting 13 23.9
2019-Dec-12 17:32 025 2 gusting 9 23.9
2019-Dec-12 17:17 032 1 gusting 7 24.4
2019-Dec-12 17:03 051 5 gusting 11 24.4
2019-Dec-12 16:47 047 2 gusting 8 23.9
2019-Dec-12 16:31 022 5 gusting 11 23.9
2019-Dec-12 16:16 036 7 gusting 15 23.3
2019-Dec-12 16:02 097 2 gusting 11 22.8
2019-Dec-12 15:46 330 2 gusting 12 22.2
2019-Dec-12 15:32 011 3 gusting 9 21.1
2019-Dec-12 15:16 021 2 gusting 6 20.6
2019-Dec-12 15:02 027 3 gusting 10 20.6
2019-Dec-12 14:47 070 3 gusting 7 20.0
2019-Dec-12 14:31 023 0 gusting 7 19.4
2019-Dec-12 14:16 051 2 gusting 8 19.4
2019-Dec-12 14:00 351 1 gusting 7 18.9
2019-Dec-12 13:47 321 1 gusting 8 18.9
2019-Dec-12 13:31 017 3 gusting 9 18.9
2019-Dec-12 13:01 323 1 gusting 6 18.9
2019-Dec-12 12:46 005 2 gusting 7 18.9
2019-Dec-12 12:31 009 3 gusting 8 18.9
2019-Dec-12 12:16 022 0 gusting 7 18.3
2019-Dec-12 12:02 039 3 gusting 8 18.3
2019-Dec-12 11:46 026 1 gusting 7 18.3
2019-Dec-12 11:31 026 2 gusting 7 18.3
2019-Dec-12 11:17 013 2 gusting 7 17.8
2019-Dec-12 11:01 078 1 gusting 6 17.8
2019-Dec-12 10:46 338 2 gusting 8 17.8
2019-Dec-12 10:31 355 2 gusting 9 17.2
2019-Dec-12 10:16 317 1 gusting 4 17.2
2019-Dec-12 10:01 028 0 gusting 6 17.2
2019-Dec-12 09:46 360 0 gusting 5 17.2
2019-Dec-12 09:31 024 1 gusting 6 17.2
2019-Dec-12 09:16 019 0 gusting 6 17.2
2019-Dec-12 09:03 028 0 gusting 5 17.2
2019-Dec-12 08:46 005 17.2
2019-Dec-12 08:31 065 1 gusting 5 17.2
2019-Dec-12 08:16 040 1 gusting 6 17.2
2019-Dec-12 08:01 051 2 gusting 13 17.2
2019-Dec-12 07:46 053 2 gusting 7 17.2
2019-Dec-12 07:31 066 0 gusting 7 17.8
2019-Dec-12 07:01 355 3 gusting 10 17.8
2019-Dec-12 06:45 309 4 gusting 9 17.8
2019-Dec-12 06:31 053 3 gusting 9 17.8
2019-Dec-12 06:15 011 3 gusting 9 17.2
2019-Dec-12 06:01 123 1 gusting 9 17.2
2019-Dec-12 05:47 082 2 gusting 8 17.2
2019-Dec-12 05:31 360 2 gusting 8 17.2
2019-Dec-12 05:17 009 1 gusting 10 17.2
2019-Dec-12 05:02 005 4 gusting 8 17.2
2019-Dec-12 04:46 069 2 gusting 7 17.2
2019-Dec-12 04:32 024 2 gusting 9 17.2
2019-Dec-12 04:17 018 1 gusting 9 16.7
2019-Dec-12 04:02 031 1 gusting 6 17.2
2019-Dec-12 03:46 355 3 gusting 13 17.2
2019-Dec-12 03:34 042 4 gusting 10 17.2
2019-Dec-12 03:16 088 2 gusting 7 17.2
2019-Dec-12 03:02 005 2 gusting 11 17.2
2019-Dec-12 02:46 346 5 gusting 12 17.2
2019-Dec-12 02:32 026 5 gusting 11 17.2
2019-Dec-12 02:16 045 3 gusting 10 17.2
2019-Dec-12 02:01 057 3 gusting 10 17.2
2019-Dec-12 01:46 037 3 gusting 8 17.2
2019-Dec-12 01:32 318 3 gusting 8 17.2
2019-Dec-12 01:17 350 2 gusting 9 17.2
2019-Dec-12 00:47 005 4 gusting 10 17.2
2019-Dec-12 00:31 036 6 gusting 16 17.2
2019-Dec-12 00:16 072 5 gusting 14 17.8
2019-Dec-12 00:00 024 4 gusting 12 17.8
2019-Dec-11 23:48 270 3 gusting 10 17.8
2019-Dec-11 23:34 022 5 gusting 13 18.3
2019-Dec-11 23:16 033 3 gusting 13 18.9
2019-Dec-11 23:02 342 5 gusting 14 19.4
2019-Dec-11 22:48 017 6 gusting 14 20.6
2019-Dec-11 22:32 360 7 gusting 20 21.1
2019-Dec-11 22:17 031 3 gusting 11 22.2
2019-Dec-11 22:01 024 4 gusting 13 22.8
2019-Dec-11 21:47 053 3 gusting 12 23.9
2019-Dec-11 21:33 306 3 gusting 12 24.4
2019-Dec-11 21:17 046 2 gusting 9 25.6
2019-Dec-11 21:05 005 3 gusting 11 25.6
2019-Dec-11 20:47 009 3 gusting 8 26.1
2019-Dec-11 20:31 355 2 gusting 6 26.7
2019-Dec-11 20:17 019 2 gusting 10 27.8
2019-Dec-11 20:03 026 2 gusting 9 28.3
2019-Dec-11 19:47 025 2 gusting 10 28.3
2019-Dec-11 19:32 109 1 gusting 8 28.9
2019-Dec-11 19:16 321 4 gusting 8 28.9
2019-Dec-11 19:01 348 1 gusting 7 28.9
2019-Dec-11 18:47 321 1 gusting 5 28.9
2019-Dec-11 18:32 321 2 gusting 8 28.3
2019-Dec-11 18:16 274 1 gusting 3 28.3
2019-Dec-11 18:02 017 2 gusting 7 27.8
2019-Dec-11 17:46 229 2 gusting 6 27.2
2019-Dec-11 17:31 041 1 gusting 8 27.2
2019-Dec-11 17:16 299 2 gusting 8 27.8
2019-Dec-11 17:02 286 5 gusting 7 27.8
2019-Dec-11 16:47 312 5 gusting 9 27.2
2019-Dec-11 16:31 218 2 gusting 6 25.6
2019-Dec-11 16:16 180 0 gusting 4 25.0
2019-Dec-11 16:02 221 0 gusting 4 24.4
2019-Dec-11 15:46 215 1 gusting 4 23.9
2019-Dec-11 15:31 218 23.3
2019-Dec-11 15:16 206 0 gusting 2 23.3
2019-Dec-11 15:01 151 0 gusting 4 23.3
2019-Dec-11 14:47 175 0 gusting 2 23.3
2019-Dec-11 14:31 159 22.8
2019-Dec-11 14:16 140 1 gusting 3 22.2
2019-Dec-11 14:02 132 21.7
2019-Dec-11 13:46 129 21.1
2019-Dec-11 13:32 136 20.6
2019-Dec-11 13:16 136 20.0
2019-Dec-11 13:01 136 20.0
2019-Dec-11 12:47 136 20.0
2019-Dec-11 12:31 136 19.4
2019-Dec-11 12:16 136 20.0
2019-Dec-11 12:01 136 20.0
2019-Dec-11 11:47 136 20.0
2019-Dec-11 11:31 136 20.0
2019-Dec-11 11:16 136 20.0
2019-Dec-11 11:04 136 20.0
2019-Dec-11 10:47 136 20.0
2019-Dec-11 10:32 136 19.4
2019-Dec-11 10:16 136 19.4
2019-Dec-11 10:03 136 19.4
2019-Dec-11 09:47 136 20.0
2019-Dec-11 09:32 136 20.0
2019-Dec-11 09:20 136 20.0
2019-Dec-11 09:03 136 20.0
2019-Dec-11 08:48 136 20.0
2019-Dec-11 08:31 136 20.0
2019-Dec-11 08:16 136 20.0
2019-Dec-11 08:04 136 20.0
2019-Dec-11 07:46 136 20.0
2019-Dec-11 07:32 136 20.6
2019-Dec-11 07:15 136 20.6
2019-Dec-11 07:01 136 0 gusting 2 20.6
2019-Dec-11 06:48 156 20.0
2019-Dec-11 06:31 135 0 gusting 2 20.0
2019-Dec-11 06:16 195 19.4
2019-Dec-11 06:02 217 19.4
2019-Dec-11 05:47 221 19.4
2019-Dec-11 05:32 221 19.4
2019-Dec-11 05:17 221 19.4
2019-Dec-11 05:01 221 19.4
2019-Dec-11 04:47 221 19.4
2019-Dec-11 04:32 221 19.4
2019-Dec-11 04:16 221 19.4
2019-Dec-11 04:04 221 19.4
2019-Dec-11 03:48 221 19.4
2019-Dec-11 03:32 221 19.4
2019-Dec-11 03:16 221 19.4
2019-Dec-11 03:04 221 19.4
2019-Dec-11 02:48 221 20.0
2019-Dec-11 02:32 221 20.0
2019-Dec-11 02:18 221 20.6
2019-Dec-11 02:03 221 20.6